Flag for Brazil Weather past 2 weeks in Maceió, Alagoas, Brazil

Now
75 °F

Passing clouds.


Feels Like: 75 °F
Forecast: 75 / 88 °F
Wind: 3 mph from Northeast

Location: Maceio Aeroporto

Current Time: Apr 18, 2015 at 10:40:23 PM

Latest Report: Apr 18, 2015 at 10:00 PM


Visibility: N/A

Pressure: 29.95 "Hg

Humidity: 83%

Dew point: 70 °F

Location of MaceióLocation

Historic Weather in Maceió — Graph

°F

Maceió temperature yesterday

Maximum temperature yesterday: 91 °F (at 2:00 PM)
Minimum temperature yesterday: 72 °F (at 2:00 AM)
Average temperature yesterday: 79 °F

Past Weeks' High & Low Weather Summary

 TemperatureHumidityPressure
High97 °F (Apr 7, 1:00 PM)100% (Apr 5, 5:00 AM)30.01 "Hg (Apr 5, 5:00 AM)
Low68 °F (Apr 14, 4:00 AM)36% (Apr 7, 12:00 PM)29.74 "Hg (Apr 7, 2:00 PM)
Average80 °F77%29.91 "Hg
* Reported Apr 3 9:00 PM — Apr 18 9:00 PM, Maceió, Weather by CustomWeather, © 2015

Note: Actual official high and low records may vary slightly from our data, if they occured in-between our weather recording intervals... More about our weather records

Advertising

Maceió weather history for previous 24 hours

 ConditionsComfort  
Time TempWeatherWind HumidityBarometerVisibility
9:00 PM
Sat, Apr 18
77 °FPassing clouds.2 mph79%29.95 "HgN/A
8:00 PM77 °FClear.3 mph79%29.95 "Hg10 mi
7:00 PM77 °FClear.3 mph79%29.92 "Hg10 mi
6:00 PM81 °FClear.8 mph66%29.89 "Hg10 mi
5:00 PM84 °FSunny.12 mph55%29.89 "Hg10 mi
4:00 PM88 °FPassing clouds.10 mph40%29.86 "HgN/A
3:00 PM90 °FPassing clouds.9 mph41%29.86 "HgN/A
2:00 PM90 °FPassing clouds.9 mph41%29.89 "HgN/A
1:00 PM88 °FPassing clouds.9 mph46%29.92 "HgN/A
12:00 PM88 °FPassing clouds.9 mph46%29.95 "HgN/A
11:00 AM88 °FPassing clouds.9 mph46%29.95 "HgN/A
10:00 AM84 °FPassing clouds.5 mph55%29.98 "HgN/A
9:00 AM84 °FScattered clouds.6 mph58%29.98 "HgN/A
8:00 AM81 °FSunny.2 mph70%29.98 "Hg10 mi
7:00 AM77 °FSunny.2 mph83%29.95 "Hg10 mi
6:00 AM70 °FSunny.5 mph100%29.92 "Hg10 mi
5:00 AM70 °FPassing clouds.3 mph100%29.92 "HgN/A
4:00 AM72 °FPassing clouds.5 mph94%29.92 "HgN/A
3:00 AM72 °FPassing clouds.3 mph100%29.92 "HgN/A
2:00 AM72 °FPassing clouds.2 mph100%29.92 "HgN/A
1:00 AM73 °FPassing clouds.2 mph94%29.95 "HgN/A
12:00 AM73 °FPassing clouds.3 mph94%29.95 "HgN/A
11:00 PM
Fri, Apr 17
73 °FPassing clouds.3 mph94%29.95 "HgN/A
10:00 PM75 °FPassing clouds.No wind89%29.95 "HgN/A
Weather by CustomWeather, © 2015

See weather overviewHow to use our weather pages